Regional Weather Roundup
Issued by NWS

Home | Current Version | Previous Version | Graphics & Text | Print | Product List | Glossary On
Versions: 1 2 3 4 5 6 7 8 9 10 11 12 13 14 15 16 17 18 19 20 21 22 23 24 25 26 27 28 29 30 31 32 33 34 35 36 37 38 39 40 41 42 43 44 45 46 47 48 49 50
000
ASUS43 KLOT 230004
RWRIL

ILLINOIS REGIONAL WEATHER ROUNDUP
NATIONAL WEATHER SERVICE CHICAGO/ROMEOVILLE IL
700 PM CDT THU JUN 22 2017

NOTE: "FAIR" INDICATES FEW OR NO CLOUDS BELOW 12,000 FEET WITH NO
SIGNIFICANT WEATHER AND/OR OBSTRUCTIONS TO VISIBILITY.

* THESE STATIONS ARE NOT UNDER NWS QUALITY CONTROL. THEY ALSO MAY NOT
  REPORT WEATHER SUCH AS PRECIPITATION OR FOG.

ILZ001-002-007-009-015-016-024-230100-
NORTHWEST ILLINOIS

CITY           SKY/WX    TMP DP  RH WIND       PRES   REMARKS
MOLINE         MOSUNNY   83  70  64 VRB7      29.67R HX  87
6HR MIN TEMP:  83; 6HR MAX TEMP:  89;

STERLING*      SUNNY     82  72  71 VRB7      29.70R HX  87
SAVANNA*       PTSUNNY   84  71  65 S9        29.69S HX  89
$$

ILZ003-004-008-010-011-017-018-230100-
NORTH CENTRAL ILLINOIS

CITY           SKY/WX    TMP DP  RH WIND       PRES   REMARKS
ROCKFORD       CLOUDY    84  69  60 SW10      29.72R HX  88
6HR MIN TEMP:  84; 6HR MAX TEMP:  88;

FREEPORT*      CLOUDY    81  69  67 S12       29.73R HX  84
ROCHELLE*      SUNNY     83  71  66 S16G30    29.70R HX  87
DE KALB*       SUNNY     82  70  66 S23G29    29.70S HX  86
PERU*          SUNNY     82  70  67 S16G22    29.71F HX  86
$$

ILZ005-006-012>014-019>023-230100-
NORTHEAST ILLINOIS

CITY           SKY/WX    TMP DP  RH WIND       PRES   REMARKS
CHICAGO-OHARE  MOSUNNY   85  68  56 SW16G28   29.69F HX  88
6HR MIN TEMP:  85; 6HR MAX TEMP:  88; 6HR PCP: TRACE;

CHICAGO-MIDWAY NOT AVBL
AURORA         SUNNY     83  70  64 S17G28    29.71F HX  87
6HR MIN TEMP:  83; 6HR MAX TEMP:  87;

LANSING*       CLOUDY    82  69  64 S16G25    29.75S HX  85
JOLIET*        MOSUNNY   83  73  71 S15G22    29.73F HX  90
WAUKEGAN       MOSUNNY   83  70  64 S14G23    29.70R HX  87
6HR MIN TEMP:  83; 6HR MAX TEMP:  88;

DUPAGE AIRPORT MOSUNNY   82  71  69 S17G28    29.70F HX  86
6HR MIN TEMP:  82; 6HR MAX TEMP:  86; 6HR PCP: TRACE;

WHEELING       MOSUNNY   85  70  60 S18G25    29.70F HX  89
6HR MIN TEMP:  84; 6HR MAX TEMP:  88;

MORRIS*        MOSUNNY   84  70  62 S15G21    29.71F HX  88
ROMEOVILLE*    MOSUNNY   82  69  62 S16G25    29.72F HX  85
NORTHERLY ISL    N/A     82  68  62 S16         N/A  HX  85
$$

LMZ740>746-230100-
SOUTHERN LAKE MICHIGAN

STATION/POSITION SKY/WX   TEMP    WIND        PRES    VSBY  WAVE
                          AIR SEA DIR/SP/G                  HT/PER
                          (F)     (DEG/KT/KT) (MB)    (MI)  (FT/S)
SOUTHERN BUOY              69 61  150/ 17/ 21 1006.0          1/ 4
WILMETTE HARBOR            78 65  200/ 14/ 19   N/A           2/ 3
HARRISON CRIB              80     180/ 21/ 22   N/A
BURNHAM HARBOR             82                   N/A
CALUMET HARBOR             81     190/ 14/ 18 1006.4F
BURNS HARBOR               81     200/ 21/ 30 1007.5F
MICHIGAN CITY              81     190/ 18/ 21   N/A
MICHIGAN CITY 6N           77 68  190/ 14/ 19   N/A           2/ 3
ST. JOSEPH                 74 69  210/ 12/ 14 1006.7F         2/ 3
$$

ILZ025>027-034>036-040-047-049-050-058-095>099-230100-
WEST-CENTRAL ILLINOIS

CITY           SKY/WX    TMP DP  RH WIND       PRES   REMARKS
QUINCY         MOSUNNY   83  72  69 SE13      29.70F HX  88
GALESBURG*     PTSUNNY   80  71  73 S8G20     29.71F HX  84
MACOMB*        MOSUNNY   82  72  71 S13       29.72F HX  87
JACKSONVILLE*  CLOUDY    82  72  70 S10G17    29.73F HX  87
PITTSFIELD*    MOSUNNY   83  73  73 SE9       29.73F HX  88
$$

ILZ028>032-037-038-041>044-048-051>054-059>061-230100-
CENTRAL ILLINOIS

CITY           SKY/WX    TMP DP  RH WIND       PRES   REMARKS
PONTIAC        CLOUDY    80  75  85 S14G25    29.76S HX  84
BLOOMINGTON    CLOUDY    75  73  93 S16       29.77F
DECATUR        LGT RAIN  75  73  93 S10       29.78S FOG
PEORIA         MOSUNNY   82  73  74 S12       29.72F HX  87
6HR MIN TEMP:  81; 6HR MAX TEMP:  85; 6HR PCP: TRACE;

LACON*         SUNNY     82  72  71 S10       29.70F HX  87
LINCOLN*       CLOUDY    81  74  79 S16G22    29.75S HX  85
SPRINGFIELD    PTSUNNY   81  74  79 S14       29.75F HX  86
6HR MIN TEMP:  80; 6HR MAX TEMP:  86; 6HR PCP:  0.01;

TAYLORVILLE    CLOUDY    75  74  98 S10G16    29.77F
6HR MIN TEMP:  74; 6HR MAX TEMP:  85; 6HR PCP:  0.10;

$$

ILZ033-039-045-046-055>057-062-063-230100-
EAST-CENTRAL ILLINOIS

CITY           SKY/WX    TMP DP  RH WIND       PRES   REMARKS
RANTOUL*       CLOUDY    79  72  78 S16G24    29.79S HX  82
MATTOON        LGT RAIN  74  73  97 S12       29.80S FOG
PARIS*         CLOUDY    74  71  89 S9G17     29.82F
$$

ILZ079-100>102-230100-
SOUTHWEST ILLINOIS

CITY           SKY/WX    TMP DP  RH WIND       PRES   REMARKS
ALTON          PTSUNNY   81  73  78 S12       29.75F HX  85
BELLEVILLE     CLOUDY    80  74  80 S8        29.77S HX  85
CAHOKIA*       CLOUDY    84  71  65 S6        29.74F HX  89
SPARTA*        CLOUDY    78  74  85 SE6       29.78S HX  81
$$

ILZ064>066-069>071-074>076-080>082-084>086-088>090-092>094-230100-
SOUTH-CENTRAL ILLINOIS

CITY           SKY/WX    TMP DP  RH WIND       PRES   REMARKS
CARBONDALE     MOSUNNY   81  76  84 SE7       29.77S HX  87
6HR MIN TEMP:  74; 6HR MAX TEMP:  81; 6HR PCP:  0.04;

CAIRO*         CLOUDY    81  77  87 NE3       29.76R HX  88
EFFINGHAM*     CLOUDY    76  73  93 SE10G17   29.81S
MT. VERNON     CLOUDY    76  74  93 SE6       29.79F
CENTRALIA*     CLOUDY    77  75  93 SE9       29.78S
SALEM*         CLOUDY    78  73  84 S7        29.79F HX  80
METROPOLIS*    CLOUDY    81  76  85 CALM      29.78S HX  87
$$

ILZ067-068-072-073-078-083-087-091-230100-
SOUTHEAST ILLINOIS

CITY           SKY/WX    TMP DP  RH WIND       PRES   REMARKS
LAWRENCEVILLE  CLOUDY    75  71  87 S17       29.82F
FLORA*         RAIN     N/A N/A N/A SE10      29.81S
FAIRFIELD*     RAIN      74  74  99 SE6       29.79F
HARRISBURG*    CLOUDY    78  74  90 SE8       29.80F
ROBINSON*      CLOUDY    74  70  87 S9        29.83S
CARMI*         CLOUDY    75  74  96 E6        29.81F
$$

ABBREVIATIONS USED IN REMARKS
   TC - TEMPERATURE IN CELSIUS
  WCI - WIND CHILL INDEX
   HX - HEAT INDEX
  VSB - VISIBILITY
$$





USA.gov is the U.S. government's official web portal to all federal, state and local government web resources and services.